Home   Weather   Ilulissat   Past weeks

Flag for Greenland Past Weather in Ilulissat, Greenland — Yesterday and Last 2 Weeks

Now
28 °F

Passing clouds.


Feels Like: 28 °F
Forecast: N/A
Wind: No wind

Location: Jacobshavn Lufthavn

Current Time: Sep 30, 2016 at 8:03:05 PM

Latest Report: Sep 30, 2016 at 6:50 PM


Visibility: N/A

Pressure: 29.53 "Hg

Humidity: 74%

Dew Point: 21 °F

Location of IlulissatLocation

Past Weather in Ilulissat — Graph

°F

Ilulissat Temperature Yesterday

Maximum temperature yesterday: 34 °F (at 12:50 AM)
Minimum temperature yesterday: 34 °F (at 12:50 AM)
Average temperature yesterday: 34 °F

High & Low Weather Summary for the Past Weeks

 TemperatureHumidityPressure
High45 °F (Sep 15, 6:50 PM)100% (Sep 28, 7:50 PM)30.15 "Hg (Sep 28, 7:50 PM)
Low23 °F (Sep 19, 12:50 AM)25% (Sep 22, 12:50 AM)29.39 "Hg (Sep 16, 8:50 AM)
Average32 °F65%29.82 "Hg
* Reported Sep 15 6:50 PM — Sep 30 6:50 PM, Ilulissat, Weather by CustomWeather, © 2016

Note: Actual official high and low records may vary slightly from our data, if they occured in-between our weather recording intervals... More about our weather records

Advertising

Ilulissat Weather History for the Previous 24 Hours

Scroll right to see more
 ConditionsComfort  
Time TempWeatherWind HumidityBarometerVisibility
6:50 PM
Fri, Sep 30
28 °FPassing clouds.No wind74%29.53 "HgN/A
4:50 PM32 °FPartly sunny.1 mph64%29.53 "HgN/A
3:50 PM32 °FPartly sunny.1 mph64%29.53 "HgN/A
2:50 PM34 °FPartly sunny.5 mph65%29.53 "HgN/A
1:50 PM34 °FScattered clouds.6 mph65%29.56 "HgN/A
12:50 PM36 °FScattered clouds.3 mph56%29.56 "HgN/A
11:50 AM34 °FScattered clouds.6 mph60%29.59 "HgN/A
10:50 AM34 °FScattered clouds.5 mph65%29.59 "HgN/A
9:50 AM32 °FScattered clouds.2 mph64%29.62 "HgN/A
8:50 AM32 °FScattered clouds.3 mph69%29.62 "HgN/A
7:50 AM32 °FPartly sunny.14 mph60%29.65 "HgN/A
6:50 AM34 °FPassing clouds.2 mph60%29.65 "HgN/A
5:50 AM34 °FPassing clouds.6 mph60%29.68 "HgN/A
4:50 AM32 °FPassing clouds.3 mph64%29.71 "HgN/A
3:50 AM34 °FPassing clouds.9 mph70%29.71 "HgN/A
2:50 AM34 °FPassing clouds.3 mph70%29.74 "HgN/A
1:50 AM34 °FPassing clouds.5 mph75%29.77 "HgN/A
12:50 AM34 °FOvercast.No wind81%29.80 "HgN/A
11:50 PM
Thu, Sep 29
34 °FPassing clouds.3 mph81%29.83 "HgN/A
10:50 PM34 °FPassing clouds.15 mph81%29.83 "HgN/A
9:50 PM34 °FPassing clouds.10 mph87%29.86 "HgN/A
8:50 PM34 °FPassing clouds.6 mph87%29.89 "HgN/A
Weather by CustomWeather, © 2016

See weather overviewHow to use our weather pages